[[{"header":{"parameterUnit":"m.s-1","parameterCategory":2,"la1":30.2991,"la2":30.254,"lo1":-89.0895,"lo2":-89.0444,"dy":0.0017,"dx":0.0017,"nx":28,"ny":28,"refTime":"2024-05-12T03:00:00:Z","depth":"0","parameterNumber":2,"parameterNumberName":"U-component_of_CURRENTS"},"data":[0,0,0,0,0,0,0,0,0,0,0,0,0,0,0,0,0,0,0,0,0,0,0,0,0,0,0,0,0,0,0,0,0,0,0,0,0,0,0,0,0,0,0,0,0,0,0,0,0,0,0,0,0,0,0,0,0,0,0.1544,0.1544,0,0.1539,0.1539,0.1539,0.1535,0.1535,0.1535,0.1535,0.1521,0.1521,0.1521,0,0,0,0,0,0,0,0,0,0,0,0,0,0.1534,0.1534,0.1544,0.1544,0.1544,0.1539,0.1539,0.1539,0.1535,0.1535,0.1535,0.1535,0.1522,0.1521,0.1521,0,0,0,0,0,0,0,0,0,0,0,0,0,0.1533,0.1534,0.1544,0.1543,0.1543,0.1539,0.1539,0.1539,0.1534,0.1535,0.1535,0.1535,0.1522,0.1521,0.152,0.1512,0,0,0.1518,0.1518,0,0,0,0,0,0,0,0,0.1533,0.1533,0.1543,0.1543,0.1543,0.1539,0.1531,0.153,0.1534,0.1536,0.1535,0.1535,0.1528,0.1527,0.1523,0.1512,0.1511,0.1518,0.1518,0.1517,0.1517,0,0,0,0,0,0,0,0.1533,0.1533,0.154,0.1543,0.1543,0.1537,0.1537,0.153,0.1529,0.1536,0.1536,0.1538,0.1527,0.1523,0.1522,0.1511,0.1518,0.1518,0.1517,0.1517,0.1522,0.1523,0,0,0,0,0,0,0.1538,0.1533,0.154,0.154,0.154,0.1538,0.1538,0.1539,0.1529,0.1529,0.1538,0.1538,0.1524,0.1523,0.1522,0.1537,0.1517,0.1517,0.1516,0.1521,0.1522,0.1523,0,0,0,0,0,0,0.1538,0.1539,0.154,0.1538,0.1538,0.1538,0.1539,0.1539,0.154,0.1532,0.153,0.154,0.1525,0.1523,0.1523,0.1536,0.1516,0.1516,0.1521,0.1522,0.1522,0.1551,0,0,0,0,0,0,0.1537,0.1538,0.154,0.1538,0.1539,0.1544,0.1539,0.1538,0.1541,0.1541,0.1533,0.1532,0.1525,0.1524,0.1522,0.1534,0.1515,0.152,0.1521,0.1522,0.155,0.1553,0.1556,0,0,0,0,0,0.1537,0.1537,0.154,0.1541,0.1541,0.1545,0.1544,0.1543,0.1541,0.1544,0.154,0.1532,0.153,0.1524,0.1521,0.1534,0.152,0.1521,0.1522,0.1548,0.1552,0.1556,0,0,0,0,0,0,0.1533,0.1537,0.154,0.1542,0.1547,0.1545,0.1545,0.1546,0.1544,0.1543,0.1535,0.1533,0.154,0.1532,0.1526,0.1539,0.1525,0.1526,0.1546,0.155,0.1553,0.1565,0.1515,0,0,0,0,0,0.1534,0.1535,0.1541,0.1543,0.1546,0.1547,0.1548,0.1549,0.1548,0.1548,0.1542,0.1539,0.1543,0.1542,0.154,0.1542,0.1566,0.1551,0.1554,0.1557,0.1566,0.1615,0.1624,0.1527,0.1527,0.1527,0,0,0.1532,0.1536,0.1536,0.1543,0.1544,0.155,0.1548,0.1552,0.1558,0.1546,0.1548,0.1548,0.1546,0.1553,0.1556,0.1548,0.1598,0.1558,0.156,0.1568,0.1617,0.1627,0.1636,0.1528,0.1528,0.1527,0,0,0.1529,0.1534,0.1535,0.1542,0.155,0.1553,0.1557,0.1559,0.1562,0.1565,0.1564,0.1576,0.1567,0.1577,0.1579,0.1598,0.1614,0.1595,0.1619,0.1667,0.1676,0.1684,0.1735,0.1747,0.1596,0.1596,0.1596,0,0.1528,0.153,0.1536,0.1542,0.1548,0.1556,0.1561,0.1567,0.1569,0.1578,0.157,0.1586,0.1582,0.1608,0.1615,0.1607,0.1638,0.1604,0.1673,0.1681,0.1689,0.1739,0.1752,0.1597,0.1597,0.1597,0.1597,0,0.1526,0.1531,0.1533,0.1543,0.1552,0.1558,0.1571,0.158,0.1585,0.1593,0.1617,0.1619,0.1634,0.1635,0.163,0.168,0.1687,0.1673,0.1666,0.1701,0.1751,0.1765,0.1599,0.1599,0.1598,0.1598,0,0,0.1511,0.1528,0.1527,0.1533,0.1554,0.1557,0.1578,0.1598,0.162,0.1627,0.166,0.1668,0.168,0.1685,0.1687,0.1724,0.1805,0.1723,0.1725,0.1779,0.1923,0.1935,0.195,0.1806,0.1808,0.181,0.194,0,0.1507,0.1512,0.1526,0.1535,0.1539,0.1563,0.1583,0.1607,0.1631,0.1666,0.1687,0.1718,0.1696,0.1716,0.175,0.1794,0.184,0.1772,0.1877,0.188,0.1891,0.1966,0.1971,0.2088,0.1953,0.1955,0.1957,0,0.1496,0.1502,0.1507,0.1532,0.1538,0.1548,0.1589,0.1612,0.1671,0.1696,0.1737,0.1761,0.1821,0.1798,0.1897,0.1857,0.1896,0.1925,0.1931,0.1942,0.1917,0.2029,0.2117,0.2089,0.1977,0.1976,0.1974,0,0.147,0.1488,0.1489,0.1497,0.1528,0.154,0.1563,0.1617,0.1653,0.1727,0.1772,0.1831,0.1882,0.1934,0.1994,0.1958,0.2111,0.2067,0.2115,0.2116,0.2141,0.2141,0.2219,0.2148,0.2147,0.2147,0.2146,0,0.1453,0.1454,0.1476,0.1474,0.149,0.1522,0.1558,0.1596,0.1673,0.1728,0.1787,0.1856,0.1922,0.2009,0.204,0.2136,0.2153,0.2148,0.2161,0.2151,0.215,0.2141,0.2073,0.2152,0.2151,0.215,0.2149,0,0.1419,0.1433,0.1436,0.1464,0.1474,0.1485,0.155,0.1584,0.1664,0.1747,0.178,0.1904,0.2025,0.2094,0.2205,0.221,0.2219,0.2311,0.2298,0.2307,0.2295,0.2227,0.2059,0.2004,0.2387,0.2388,0.2389,0,0.1399,0.1396,0.1417,0.1423,0.1433,0.1462,0.1488,0.1566,0.1612,0.1774,0.1813,0.1971,0.2074,0.2254,0.232,0.2411,0.2277,0.2446,0.2367,0.2326,0.226,0.1994,0.194,0.242,0.2421,0.2422,0.2423,0,0.1364,0.1371,0.1374,0.139,0.1406,0.1432,0.1477,0.1516,0.1622,0.1711,0.1847,0.1955,0.2161,0.2288,0.2423,0.2463,0.2305,0.2466,0.2437,0.2313,0.2014,0.1959,0.2298,0.2432,0.2431,0.243,0.243,0.2429,0.1338,0.1335,0.1346,0.136,0.1375,0.1399,0.142,0.1484,0.1566,0.1701,0.182,0.1983,0.2229,0.2433,0.2451,0.2525,0.2347,0.2497,0.2429,0.2169,0.2071,0.2428,0.2556,0.2556,0.2555,0.2555,0.2555,0,0.132,0.1319,0.1322,0.1338,0.1343,0.1366,0.141,0.1437,0.1515,0.1679,0.18,0.2073,0.2251,0.2414,0.2572,0.2517,0.2315,0.2461,0.213,0.2093,0.2483,0.2448,0.2541,0.2541,0.2541,0.2541,0.2541,0.2541,0.1312,0.1308,0.1312,0.1309,0.1317,0.1328,0.1348,0.1391,0.1496,0.167,0.1837,0.197,0.2227,0.241,0.2463,0.243,0.219,0.2057,0.198,0.2341,0.2339,0.2336,0.2293,0.2352,0.2351,0.1527,0.1521,0.1516]},{"header":{"parameterUnit":"m.s-1","parameterCategory":2,"la1":30.2991,"la2":30.254,"lo1":-89.0895,"lo2":-89.0444,"dy":0.0017,"dx":0.0017,"nx":28,"ny":28,"refTime":"2024-05-12T03:00:00:Z","depth":"0","parameterNumber":3,"parameterNumberName":"V-component_of_CURRENTS"},"data":[0,0,0,0,0,0,0,0,0,0,0,0,0,0,0,0,0,0,0,0,0,0,0,0,0,0,0,0,0,0,0,0,0,0,0,0,0,0,0,0,0,0,0,0,0,0,0,0,0,0,0,0,0,0,0,0,0,0,0.0271,0.0271,0,0.023,0.0229,0.0229,0.0202,0.0202,0.0202,0.0202,0.0132,0.0131,0.0129,0,0,0,0,0,0,0,0,0,0,0,0,0,0.0315,0.0315,0.0271,0.0271,0.027,0.023,0.0229,0.0228,0.0202,0.0202,0.0202,0.0202,0.0133,0.0131,0.0129,0,0,0,0,0,0,0,0,0,0,0,0,0,0.0287,0.0315,0.0271,0.0252,0.025,0.023,0.0229,0.0228,0.0202,0.0202,0.0202,0.0202,0.0134,0.0131,0.0129,0.0117,0,0,0.0121,0.012,0,0,0,0,0,0,0,0,0.0289,0.0285,0.0256,0.0254,0.0251,0.0221,0.0219,0.019,0.0202,0.022,0.0202,0.0202,0.016,0.0155,0.0148,0.0113,0.011,0.0121,0.0119,0.0118,0.0117,0,0,0,0,0,0,0,0.0291,0.0287,0.0254,0.0255,0.0252,0.0242,0.0238,0.0214,0.0191,0.0219,0.0217,0.0212,0.0158,0.015,0.0146,0.0109,0.0121,0.0118,0.0117,0.0116,0.0055,0.0055,0,0,0,0,0,0,0.0297,0.0289,0.0256,0.0253,0.027,0.0241,0.0236,0.0231,0.0192,0.0186,0.0213,0.0211,0.0155,0.0149,0.0143,0.0126,0.0118,0.0115,0.0114,0.0055,0.0055,0.0055,0,0,0,0,0,0,0.0298,0.0295,0.0257,0.027,0.0265,0.0241,0.0234,0.023,0.0222,0.0188,0.0181,0.0209,0.0154,0.0147,0.0122,0.0123,0.0114,0.0112,0.0055,0.0055,0.0055,0.0092,0,0,0,0,0,0,0.03,0.0295,0.0294,0.0271,0.0265,0.025,0.0234,0.0229,0.022,0.0218,0.0182,0.0176,0.0154,0.0126,0.0119,0.012,0.011,0.0055,0.0055,0.0055,0.0091,0.0094,0.0096,0,0,0,0,0,0.0301,0.0302,0.0294,0.029,0.0264,0.025,0.0246,0.0228,0.022,0.0219,0.0193,0.0177,0.012,0.0124,0.0116,0.0116,0.0055,0.0055,0.0055,0.009,0.0093,0.0095,0,0,0,0,0,0,0.0322,0.0298,0.029,0.0284,0.027,0.0246,0.0243,0.023,0.0209,0.0206,0.0174,0.0166,0.0145,0.0124,0.0129,0.0097,0.0086,0.0084,0.0115,0.0118,0.012,0.0134,0.0108,0,0,0,0,0,0.0326,0.032,0.0298,0.0294,0.0288,0.0266,0.0258,0.0246,0.0225,0.0216,0.019,0.0163,0.0139,0.0124,0.01,0.0082,0.0072,0.0076,0.0079,0.0081,0.0087,0.0072,0.0074,0.0054,0.0054,0.0054,0,0,0.0333,0.032,0.0316,0.0298,0.0286,0.0281,0.0261,0.0252,0.0247,0.0211,0.0196,0.017,0.0136,0.0116,0.0105,0.0099,0.0082,0.0081,0.0083,0.0088,0.0072,0.0074,0.0076,0.0054,0.0054,0.0054,0,0,0.0347,0.0333,0.0333,0.0323,0.0307,0.0294,0.0293,0.0269,0.0259,0.0241,0.0214,0.0189,0.0153,0.0129,0.0112,0.0111,0.0095,0.0103,0.0124,0.011,0.0112,0.0113,0.011,0.0111,0.0103,0.0103,0.0103,0,0.0359,0.0354,0.0333,0.0332,0.0327,0.0302,0.0304,0.029,0.0261,0.0254,0.0242,0.019,0.0159,0.0136,0.0134,0.0116,0.0112,0.0118,0.0114,0.0115,0.0116,0.0113,0.0113,0.0105,0.0105,0.0104,0.0104,0,0.0372,0.0369,0.037,0.0359,0.0352,0.035,0.0328,0.0319,0.0303,0.0286,0.0262,0.022,0.0193,0.0175,0.0153,0.0142,0.0139,0.0121,0.0111,0.012,0.0116,0.0116,0.0107,0.0107,0.0106,0.0106,0,0,0.0396,0.0382,0.0382,0.0384,0.0367,0.0362,0.0357,0.0343,0.0345,0.0311,0.0311,0.0258,0.024,0.022,0.0187,0.0169,0.0167,0.0152,0.015,0.0157,0.0149,0.016,0.016,0.0152,0.0152,0.0152,0.0147,0,0.0415,0.0421,0.0407,0.0415,0.0417,0.0396,0.0395,0.0379,0.0364,0.0359,0.0315,0.0302,0.0256,0.025,0.0222,0.0185,0.0168,0.0171,0.0133,0.0132,0.0146,0.016,0.0239,0.0242,0.0147,0.0147,0.0147,0,0.0432,0.0434,0.0445,0.0445,0.0444,0.0445,0.0443,0.0441,0.0424,0.0415,0.0391,0.0364,0.0331,0.0296,0.0235,0.0243,0.0201,0.0168,0.0166,0.0164,0.0142,0.0214,0.0245,0.0191,0.0146,0.0146,0.0146,0,0.0458,0.0461,0.0472,0.0471,0.0466,0.0468,0.0468,0.0457,0.0471,0.0459,0.0476,0.042,0.0416,0.0348,0.0278,0.0261,0.0221,0.0187,0.0155,0.0155,0.0208,0.0213,0.0189,0.0146,0.0146,0.0146,0.0146,0,0.0481,0.0488,0.0485,0.049,0.0512,0.0498,0.0525,0.0517,0.0528,0.0568,0.0513,0.0541,0.0432,0.0396,0.031,0.0244,0.0245,0.0168,0.0156,0.0223,0.023,0.0173,0.0133,0.0146,0.0146,0.0146,0.0146,0,0.0502,0.0499,0.0514,0.0517,0.0524,0.0541,0.0573,0.0595,0.0602,0.0658,0.0665,0.064,0.0602,0.0492,0.0395,0.0306,0.0218,0.02,0.0292,0.029,0.0199,0.0159,0.0145,0.0134,0.0164,0.0164,0.0164,0,0.0511,0.052,0.054,0.0559,0.0561,0.059,0.0617,0.0631,0.0673,0.0733,0.0772,0.0754,0.0775,0.0633,0.0476,0.0338,0.0261,0.0293,0.0261,0.0215,0.016,0.0147,0.0137,0.035,0.0351,0.0353,0.0354,0,0.053,0.0537,0.055,0.0595,0.0624,0.0672,0.0719,0.077,0.0815,0.0885,0.0979,0.1007,0.089,0.0811,0.0602,0.0484,0.0297,0.0316,0.0248,0.0291,0.0297,0.0275,0.0331,0.0366,0.0365,0.0364,0.0363,0.0363,0.0547,0.0566,0.0591,0.0635,0.0676,0.0755,0.0825,0.0903,0.1014,0.1159,0.116,0.1291,0.115,0.0893,0.0682,0.0414,0.0384,0.0348,0.0301,0.0289,0.0288,0.0373,0.0399,0.0398,0.0397,0.0396,0.0396,0,0.0572,0.0595,0.0633,0.0695,0.0759,0.0778,0.0897,0.1,0.1168,0.1338,0.1456,0.1595,0.1366,0.1098,0.0729,0.0481,0.038,0.0341,0.0344,0.0328,0.0399,0.0415,0.0471,0.0471,0.0471,0.0471,0.0471,0.0471,0.0587,0.0629,0.0653,0.0761,0.0813,0.0941,0.1028,0.1194,0.1363,0.1674,0.1891,0.2014,0.1958,0.116,0.0664,0.0495,0.0341,0.0296,0.0194,0.024,0.0237,0.0234,0.024,0.0257,0.0257,0.0193,0.0192,0.0191]}],[{"header":{"parameterUnit":"m.s-1","parameterCategory":2,"la1":30.2991,"la2":30.254,"lo1":-89.0895,"lo2":-89.0444,"dy":0.0017,"dx":0.0017,"nx":28,"ny":28,"refTime":"2024-05-12T03:00:00:Z","depth":"2","parameterNumber":2,"parameterNumberName":"U-component_of_CURRENTS"},"data":[0,0,0,0,0,0,0,0,0,0,0,0,0,0,0,0,0,0,0,0,0,0,0,0,0,0,0,0,0,0,0,0,0,0,0,0,0,0,0,0,0,0,0,0,0,0,0,0,0,0,0,0,0,0,0,0,0,0,0.1531,0.1531,0,0.1527,0.1526,0.1526,0.1523,0.1523,0.1523,0.1524,0.1511,0.1511,0.151,0,0,0,0,0,0,0,0,0,0,0,0,0,0.152,0.152,0.1531,0.1531,0.1531,0.1527,0.1526,0.1526,0.1523,0.1523,0.1523,0.1524,0.1511,0.1511,0.151,0,0,0,0,0,0,0,0,0,0,0,0,0,0.1519,0.152,0.1531,0.153,0.153,0.1527,0.1526,0.1526,0.1523,0.1523,0.1524,0.1524,0.1512,0.1511,0.151,0.1502,0,0,0.1508,0.1508,0,0,0,0,0,0,0,0,0.1519,0.152,0.153,0.153,0.153,0.1527,0.1518,0.1518,0.1523,0.1524,0.1524,0.1524,0.1517,0.1516,0.1512,0.1501,0.1501,0.1508,0.1508,0.1507,0.1507,0,0,0,0,0,0,0,0.152,0.152,0.1527,0.153,0.153,0.1525,0.1525,0.1518,0.1518,0.1524,0.1524,0.1526,0.1517,0.1513,0.1512,0.1501,0.1508,0.1508,0.1507,0.1507,0.1512,0.1513,0,0,0,0,0,0,0.1524,0.152,0.1527,0.1527,0.1527,0.1525,0.1525,0.1526,0.1518,0.1517,0.1526,0.1526,0.1514,0.1513,0.1511,0.1527,0.1507,0.1507,0.1506,0.1512,0.1512,0.1513,0,0,0,0,0,0,0.1524,0.1525,0.1527,0.1525,0.1525,0.1526,0.1527,0.1526,0.1528,0.152,0.1519,0.1529,0.1514,0.1512,0.1513,0.1525,0.1506,0.1506,0.1511,0.1512,0.1513,0.1541,0,0,0,0,0,0,0.1524,0.1525,0.1527,0.1525,0.1526,0.1531,0.1527,0.1526,0.153,0.153,0.1522,0.1521,0.1514,0.1514,0.1512,0.1524,0.1505,0.151,0.1511,0.1512,0.154,0.1543,0.1546,0,0,0,0,0,0.1523,0.1524,0.1527,0.1528,0.1528,0.1532,0.1531,0.1531,0.153,0.1532,0.1529,0.1522,0.1519,0.1513,0.1511,0.1524,0.151,0.1511,0.1512,0.1538,0.1542,0.1546,0,0,0,0,0,0,0.152,0.1524,0.1527,0.1529,0.1534,0.1532,0.1533,0.1534,0.1532,0.1532,0.1524,0.1523,0.153,0.1522,0.1515,0.1529,0.1515,0.1516,0.1536,0.1539,0.1543,0.1554,0.1505,0,0,0,0,0,0.1521,0.1522,0.1528,0.153,0.1534,0.1535,0.1536,0.1538,0.1537,0.1536,0.1531,0.1528,0.1532,0.1532,0.153,0.1532,0.1555,0.1541,0.1544,0.1546,0.1555,0.1604,0.1613,0.1517,0.1517,0.1517,0,0,0.1519,0.1523,0.1523,0.153,0.1532,0.1537,0.1535,0.154,0.1546,0.1535,0.1537,0.1538,0.1535,0.1543,0.1545,0.1538,0.1587,0.1548,0.155,0.1558,0.1606,0.1616,0.1624,0.1518,0.1518,0.1518,0,0,0.1516,0.1521,0.1522,0.1529,0.1538,0.154,0.1545,0.1547,0.1551,0.1554,0.1553,0.1565,0.1556,0.1566,0.1569,0.1587,0.1603,0.1584,0.1608,0.1656,0.1665,0.1672,0.1722,0.1735,0.1585,0.1585,0.1585,0,0.1515,0.1517,0.1523,0.1529,0.1535,0.1544,0.1549,0.1555,0.1557,0.1566,0.1559,0.1575,0.1572,0.1596,0.1604,0.1596,0.1627,0.1594,0.1662,0.167,0.1677,0.1727,0.174,0.1587,0.1587,0.1586,0.1586,0,0.1513,0.1519,0.1521,0.1531,0.154,0.1546,0.1559,0.1568,0.1573,0.1582,0.1605,0.1608,0.1623,0.1623,0.1618,0.1668,0.1675,0.1662,0.1654,0.1689,0.1738,0.1752,0.1589,0.1588,0.1588,0.1588,0,0,0.1499,0.1516,0.1516,0.1521,0.1542,0.1545,0.1566,0.1586,0.1608,0.1614,0.1647,0.1655,0.1667,0.1672,0.1675,0.1711,0.1791,0.1711,0.1713,0.1766,0.1908,0.1918,0.1933,0.1793,0.1795,0.1797,0.1924,0,0.1495,0.15,0.1514,0.1523,0.1527,0.1551,0.1571,0.1594,0.1618,0.1653,0.1674,0.1704,0.1683,0.1703,0.1737,0.1781,0.1826,0.1759,0.1863,0.1866,0.1874,0.1948,0.175,0.1847,0.1937,0.1939,0.1941,0,0.1485,0.1491,0.1496,0.152,0.1526,0.1536,0.1576,0.1599,0.1657,0.1682,0.1722,0.1747,0.1806,0.1784,0.1882,0.1843,0.1881,0.191,0.1915,0.1924,0.19,0.1825,0.1868,0.1963,0.1961,0.196,0.1958,0,0.1458,0.1477,0.1478,0.1485,0.1516,0.1528,0.1551,0.1603,0.1639,0.1713,0.1757,0.1815,0.1866,0.1918,0.1977,0.1942,0.2093,0.205,0.2095,0.2096,0.1948,0.1933,0.2129,0.2129,0.2129,0.2129,0.2128,0,0.1442,0.1443,0.1465,0.1463,0.1479,0.151,0.1546,0.1583,0.1659,0.1713,0.1772,0.1839,0.1906,0.1992,0.2022,0.2116,0.2135,0.2128,0.214,0.1954,0.1938,0.2044,0.2032,0.2133,0.2132,0.2131,0.2131,0,0.1409,0.1423,0.1425,0.1453,0.1463,0.1474,0.1538,0.1571,0.165,0.1732,0.1765,0.1887,0.2006,0.2074,0.2184,0.2189,0.2264,0.2287,0.2072,0.2057,0.2222,0.221,0.2357,0.2358,0.236,0.2361,0.2362,0,0.1389,0.1386,0.1407,0.1413,0.1423,0.1451,0.1476,0.1554,0.1599,0.1758,0.1797,0.1952,0.2048,0.2226,0.2249,0.2328,0.2344,0.2206,0.2101,0.2254,0.2251,0.2237,0.2223,0.1914,0.1911,0.1909,0.1907,0,0.1354,0.1361,0.1364,0.138,0.1396,0.1421,0.1465,0.1503,0.1608,0.1692,0.1825,0.1926,0.2091,0.2105,0.2221,0.2225,0.2174,0.2166,0.2392,0.1895,0.1849,0.1842,0.184,0.1887,0.1889,0.189,0.1892,0.1892,0.1328,0.1325,0.1336,0.135,0.1364,0.1387,0.1408,0.1458,0.1534,0.1637,0.1764,0.186,0.1939,0.2027,0.2001,0.1983,0.2135,0.2041,0.2042,0.2047,0.1981,0.194,0.1984,0.1986,0.1988,0.199,0.1992,0,0.1303,0.1309,0.1312,0.1327,0.1323,0.1355,0.1398,0.1401,0.1457,0.1563,0.1652,0.1597,0.1647,0.1727,0.1671,0.1712,0.1617,0.1647,0.1494,0.1519,0.154,0.144,0.1304,0.1301,0.1299,0.1297,0,0,0.1293,0.1285,0.129,0.1281,0.1295,0.1288,0.1307,0.1311,0.1361,0.1388,0.143,0.157,0.1698,0.147,0.1461,0.1378,0.1421,0.1318,0.1878,0.1725,0.1742,0.1792,0.1672,0,0,0,0,0]},{"header":{"parameterUnit":"m.s-1","parameterCategory":2,"la1":30.2991,"la2":30.254,"lo1":-89.0895,"lo2":-89.0444,"dy":0.0017,"dx":0.0017,"nx":28,"ny":28,"refTime":"2024-05-12T03:00:00:Z","depth":"2","parameterNumber":3,"parameterNumberName":"V-component_of_CURRENTS"},"data":[0,0,0,0,0,0,0,0,0,0,0,0,0,0,0,0,0,0,0,0,0,0,0,0,0,0,0,0,0,0,0,0,0,0,0,0,0,0,0,0,0,0,0,0,0,0,0,0,0,0,0,0,0,0,0,0,0,0,0.0208,0.0208,0,0.0167,0.0166,0.0166,0.0141,0.0141,0.0141,0.014,0.0072,0.007,0.0069,0,0,0,0,0,0,0,0,0,0,0,0,0,0.0253,0.0252,0.0208,0.0208,0.0207,0.0167,0.0166,0.0165,0.0141,0.0141,0.0141,0.014,0.0073,0.0071,0.0069,0,0,0,0,0,0,0,0,0,0,0,0,0,0.0224,0.0252,0.0208,0.019,0.0188,0.0167,0.0166,0.0165,0.0141,0.0141,0.014,0.014,0.0073,0.0071,0.0068,0.0055,0,0,0.006,0.0059,0,0,0,0,0,0,0,0,0.0226,0.0223,0.0193,0.0191,0.0189,0.0159,0.0157,0.0127,0.0141,0.0158,0.014,0.014,0.0099,0.0094,0.0087,0.0052,0.0049,0.006,0.0058,0.0057,0.0057,0,0,0,0,0,0,0,0.0228,0.0224,0.0191,0.0193,0.019,0.018,0.0175,0.0151,0.0129,0.0157,0.0155,0.0151,0.0098,0.0089,0.0085,0.0048,0.006,0.0058,0.0056,0.0055,-0.0006,-0.0006,0,0,0,0,0,0,0.0234,0.0226,0.0193,0.019,0.0208,0.0179,0.0174,0.0169,0.013,0.0124,0.0151,0.015,0.0094,0.0088,0.0082,0.0066,0.0057,0.0055,0.0053,-0.0006,-0.0006,-0.0006,0,0,0,0,0,0,0.0236,0.0232,0.0194,0.0208,0.0202,0.0178,0.0172,0.0168,0.016,0.0126,0.012,0.0148,0.0093,0.0086,0.0061,0.0063,0.0054,0.0051,-0.0006,-0.0006,-0.0006,0.0031,0,0,0,0,0,0,0.0237,0.0232,0.0232,0.0208,0.0202,0.0186,0.0172,0.0167,0.0158,0.0156,0.0121,0.0115,0.0093,0.0065,0.0058,0.0059,0.0049,-0.0006,-0.0006,-0.0006,0.003,0.0032,0.0034,0,0,0,0,0,0.0239,0.0239,0.0232,0.0228,0.0201,0.0186,0.0182,0.0165,0.0158,0.0157,0.0131,0.0116,0.0059,0.0063,0.0055,0.0055,-0.0006,-0.0006,-0.0006,0.0029,0.0032,0.0034,0,0,0,0,0,0,0.0259,0.0236,0.0228,0.0221,0.0207,0.0182,0.018,0.0168,0.0147,0.0144,0.0113,0.0104,0.0084,0.0063,0.0068,0.0036,0.0025,0.0023,0.0054,0.0057,0.0059,0.0074,0.0047,0,0,0,0,0,0.0263,0.0257,0.0235,0.0231,0.0225,0.0203,0.0195,0.0184,0.0162,0.0153,0.0129,0.0101,0.0077,0.0063,0.0039,0.002,0.001,0.0015,0.0017,0.0019,0.0026,0.0011,0.0013,-0.0007,-0.0007,-0.0007,0,0,0.027,0.0257,0.0253,0.0235,0.0222,0.0217,0.0198,0.0189,0.0185,0.0148,0.0134,0.0108,0.0074,0.0055,0.0044,0.0037,0.0021,0.0019,0.0021,0.0027,0.0011,0.0013,0.0015,-0.0007,-0.0007,-0.0007,0,0,0.0284,0.027,0.027,0.026,0.0244,0.023,0.0229,0.0206,0.0196,0.0178,0.0151,0.0127,0.0091,0.0067,0.005,0.0049,0.0034,0.0042,0.0063,0.0049,0.005,0.0052,0.0049,0.0049,0.0042,0.0042,0.0042,0,0.0296,0.029,0.0269,0.0268,0.0263,0.0238,0.024,0.0225,0.0197,0.019,0.0179,0.0128,0.0098,0.0074,0.0073,0.0055,0.005,0.0057,0.0053,0.0054,0.0055,0.0051,0.0051,0.0043,0.0043,0.0043,0.0043,0,0.0307,0.0304,0.0304,0.0294,0.0286,0.0284,0.0263,0.0254,0.0238,0.0222,0.0199,0.0158,0.0131,0.0114,0.0092,0.0081,0.0077,0.006,0.005,0.0059,0.0054,0.0054,0.0046,0.0045,0.0045,0.0044,0,0,0.0331,0.0316,0.0317,0.0318,0.0301,0.0296,0.029,0.0277,0.028,0.0246,0.0247,0.0195,0.0178,0.0158,0.0126,0.0108,0.0106,0.0091,0.0089,0.0095,0.0088,0.0097,0.0097,0.0091,0.0091,0.0091,0.0084,0,0.0349,0.0354,0.034,0.0348,0.0349,0.0329,0.0328,0.0313,0.0298,0.0293,0.0251,0.0239,0.0194,0.0188,0.0161,0.0124,0.0107,0.0111,0.0071,0.007,0.0083,0.0097,0.006,0.0052,0.0084,0.0084,0.0084,0,0.0366,0.0367,0.0378,0.0377,0.0376,0.0377,0.0376,0.0374,0.0358,0.0349,0.0327,0.03,0.0269,0.0234,0.0174,0.0181,0.014,0.0106,0.0105,0.0101,0.0079,0.0045,0.005,0.0083,0.0083,0.0084,0.0084,0,0.0392,0.0394,0.0404,0.0403,0.0397,0.0401,0.0401,0.0391,0.0405,0.0393,0.041,0.0356,0.0353,0.0285,0.0215,0.0199,0.0158,0.0124,0.0091,0.0092,0.0046,0.0043,0.0084,0.0084,0.0084,0.0084,0.0084,0,0.0413,0.0421,0.0418,0.0422,0.0445,0.0431,0.0458,0.0451,0.0463,0.0501,0.0448,0.0475,0.0368,0.0331,0.0246,0.018,0.0181,0.0104,0.0092,0.0059,0.0057,0.0069,0.0067,0.0084,0.0084,0.0084,0.0084,0,0.0435,0.0432,0.0447,0.045,0.0457,0.0474,0.0506,0.0529,0.0536,0.0591,0.0598,0.0572,0.0533,0.0424,0.0328,0.024,0.016,0.0133,0.011,0.0095,0.0094,0.0094,0.0096,0.0096,0.0096,0.0096,0.0097,0,0.0444,0.0454,0.0473,0.0492,0.0495,0.0524,0.0551,0.0565,0.0606,0.0664,0.0702,0.0682,0.0696,0.0553,0.0369,0.0224,0.0205,0.0104,0.0058,0.0109,0.0096,0.0096,0.0096,0.0011,0.001,0.001,0.0009,0,0.0464,0.0471,0.0484,0.0528,0.0559,0.0605,0.0652,0.0702,0.0745,0.0807,0.0897,0.0917,0.0773,0.0613,0.0394,0.0276,0.012,0.0093,0.0147,0.0022,0.003,0.0017,0.002,0.0006,0.0006,0.0006,0.0006,0.0007,0.0481,0.05,0.0525,0.0569,0.061,0.0688,0.0757,0.0803,0.09,0.0982,0.1015,0.1034,0.0839,0.0553,0.0344,0.0105,0.0132,0.0034,0.0035,0.0036,0.0035,0.0044,0.0023,0.0023,0.0024,0.0024,0.0024,0,0.0493,0.0529,0.0567,0.0629,0.0674,0.0712,0.0827,0.0871,0.0987,0.1052,0.1114,0.0944,0.0769,0.0555,0.0197,0.0009,-0.0044,-0.0057,-0.0088,-0.0082,-0.0078,-0.0085,-0.0129,-0.013,-0.013,-0.0131,0,0,0.0503,0.0539,0.0562,0.0658,0.0724,0.0807,0.0891,0.0956,0.1013,0.1063,0.1086,0.1067,0.0849,0.0561,0.0278,0.0082,0.0041,0.0028,0.0167,0.0168,0.0174,-0.0013,-0.0016,0,0,0,0,0]}],[{"header":{"parameterUnit":"m.s-1","parameterCategory":2,"la1":30.2991,"la2":30.254,"lo1":-89.0895,"lo2":-89.0444,"dy":0.0017,"dx":0.0017,"nx":28,"ny":28,"refTime":"2024-05-12T03:00:00:Z","depth":"4","parameterNumber":2,"parameterNumberName":"U-component_of_CURRENTS"},"data":[0,0,0,0,0,0,0,0,0,0,0,0,0,0,0,0,0,0,0,0,0,0,0,0,0,0,0,0,0,0,0,0,0,0,0,0,0,0,0,0,0,0,0,0,0,0,0,0,0,0,0,0,0,0,0,0,0,0,0.0996,0.0996,0,0.1028,0.1029,0.1029,0.1064,0.1065,0.1065,0.1066,0.1105,0.1105,0.1106,0,0,0,0,0,0,0,0,0,0,0,0,0,0.0948,0.0949,0.0995,0.0996,0.0996,0.1028,0.1029,0.1029,0.1064,0.1065,0.1066,0.1066,0.1105,0.1105,0.1106,0,0,0,0,0,0,0,0,0,0,0,0,0,0.0973,0.0949,0.0995,0.1018,0.1021,0.1028,0.1029,0.1029,0.1064,0.1065,0.1066,0.1067,0.1104,0.1105,0.1106,0.1094,0,0,0.1108,0.1109,0,0,0,0,0,0,0,0,0.0972,0.0975,0.1014,0.1017,0.102,0.1044,0.1027,0.1051,0.1064,0.1047,0.1066,0.1067,0.1085,0.1087,0.109,0.1095,0.1097,0.1108,0.1109,0.1109,0.1109,0,0,0,0,0,0,0,0.097,0.0973,0.1008,0.1015,0.1018,0.1022,0.1027,0.1031,0.106,0.1048,0.1051,0.1056,0.1086,0.109,0.1092,0.1098,0.1108,0.1109,0.1109,0.111,0.1156,0.1157,0,0,0,0,0,0,0.0967,0.0972,0.1007,0.1009,0.0998,0.1022,0.1027,0.1035,0.106,0.1065,0.1055,0.1057,0.1088,0.1091,0.1093,0.1137,0.1109,0.111,0.111,0.1155,0.1156,0.1157,0,0,0,0,0,0,0.0966,0.097,0.1005,0.0991,0.0996,0.1022,0.103,0.1035,0.106,0.1065,0.107,0.1078,0.1089,0.1092,0.1117,0.1137,0.111,0.1111,0.1154,0.1156,0.1157,0.1188,0,0,0,0,0,0,0.0965,0.097,0.0984,0.0991,0.0997,0.1025,0.103,0.1035,0.106,0.1064,0.1086,0.1089,0.109,0.1116,0.1117,0.1137,0.1111,0.1153,0.1155,0.1156,0.1186,0.119,0.1193,0,0,0,0,0,0.0963,0.0975,0.0984,0.0989,0.1012,0.1025,0.1029,0.1049,0.1061,0.1074,0.109,0.109,0.1126,0.1117,0.1119,0.1139,0.1153,0.1154,0.1156,0.1184,0.1189,0.1193,0,0,0,0,0,0,0.0963,0.098,0.099,0.1008,0.1023,0.1032,0.1049,0.106,0.1082,0.1092,0.1097,0.1102,0.113,0.1129,0.1119,0.1157,0.114,0.1142,0.1161,0.1165,0.1169,0.1171,0.1112,0,0,0,0,0,0.0968,0.0985,0.0998,0.1016,0.1025,0.104,0.1052,0.1065,0.108,0.1093,0.1106,0.1121,0.1134,0.1147,0.1156,0.1175,0.119,0.119,0.1194,0.1197,0.12,0.1241,0.1249,0.1163,0.1163,0.1163,0,0,0.0973,0.0986,0.0997,0.1018,0.1032,0.1045,0.105,0.1074,0.109,0.1092,0.1125,0.1135,0.1142,0.1166,0.1179,0.1171,0.1231,0.1199,0.1202,0.1203,0.1244,0.1252,0.126,0.1164,0.1164,0.1163,0,0,0.0983,0.1004,0.1018,0.1032,0.1056,0.1064,0.1075,0.1094,0.1112,0.1137,0.1145,0.117,0.1188,0.12,0.1206,0.1236,0.1249,0.1241,0.1265,0.1304,0.1312,0.1319,0.1356,0.1366,0.1245,0.1245,0.1245,0,0.0989,0.1007,0.1025,0.1039,0.1052,0.1074,0.1088,0.1106,0.1132,0.1148,0.1154,0.1194,0.1203,0.1233,0.1246,0.1245,0.127,0.1247,0.131,0.1317,0.1323,0.136,0.1371,0.1247,0.1247,0.1246,0.1246,0,0.1001,0.1023,0.1033,0.1058,0.1075,0.1093,0.1113,0.1138,0.1161,0.1177,0.1217,0.1233,0.1259,0.1267,0.1266,0.1315,0.132,0.131,0.1299,0.1334,0.1371,0.1381,0.1249,0.1249,0.1248,0.1248,0,0,0.0991,0.1033,0.1038,0.1052,0.1087,0.1097,0.113,0.116,0.1187,0.1218,0.1256,0.1281,0.13,0.1309,0.1318,0.1351,0.142,0.1354,0.1356,0.1393,0.1517,0.1421,0.1423,0.1427,0.1429,0.143,0.1527,0,0.0995,0.1022,0.1044,0.1072,0.1085,0.1116,0.1143,0.1176,0.1209,0.1253,0.1282,0.1323,0.1313,0.134,0.1371,0.1412,0.1448,0.1395,0.1476,0.1478,0.1389,0.1431,0.1436,0.1535,0.1537,0.1539,0.154,0,0.0991,0.1012,0.1039,0.1078,0.1088,0.111,0.1158,0.1187,0.1249,0.128,0.1327,0.1357,0.1418,0.1404,0.1491,0.1462,0.1494,0.1518,0.1522,0.1426,0.14,0.149,0.1559,0.1557,0.1556,0.1555,0.1554,0,0.0963,0.1005,0.1027,0.104,0.1089,0.1111,0.1142,0.1197,0.1232,0.1311,0.1354,0.1415,0.147,0.1514,0.1567,0.1543,0.1662,0.1632,0.1573,0.1568,0.1612,0.1604,0.1693,0.1693,0.1693,0.1692,0.1692,0,0.0944,0.0964,0.1019,0.1028,0.1059,0.1101,0.1144,0.1185,0.1259,0.1307,0.1372,0.1423,0.1504,0.1575,0.1601,0.1624,0.1694,0.1586,0.1586,0.1623,0.1615,0.162,0.161,0.1696,0.1695,0.1694,0.1694,0,0.0905,0.0943,0.0969,0.1026,0.1046,0.1069,0.1143,0.1173,0.1253,0.1324,0.1359,0.1463,0.155,0.1617,0.1708,0.1665,0.1697,0.1688,0.1742,0.1743,0.1568,0.1559,0.1622,0.162,0.1618,0.1616,0.1614,0,0.0885,0.0896,0.0959,0.0976,0.1004,0.1049,0.108,0.116,0.1195,0.1334,0.136,0.1485,0.1544,0.1598,0.1667,0.1715,0.1692,0.1694,0.1602,0.1567,0.1562,0.1556,0.155,0.1611,0.161,0.161,0.1609,0,0.0843,0.0875,0.0898,0.0937,0.097,0.1002,0.1053,0.1074,0.1174,0.1263,0.1334,0.139,0.1487,0.1546,0.1602,0.1625,0.1679,0.167,0.1674,0.1587,0.1554,0.155,0.1546,0.1601,0.1603,0.1603,0.1604,0,0.0813,0.0822,0.0861,0.0888,0.0927,0.0941,0.0975,0.102,0.1069,0.1212,0.1239,0.1371,0.1476,0.1503,0.1554,0.1571,0.1535,0.147,0.1483,0.1492,0.1402,0.1337,0.1327,0,0,0,0,0,0.078,0.0787,0.0809,0.0832,0.0868,0.0894,0.0951,0.0988,0.1088,0.1105,0.1166,0.1248,0.1326,0.1393,0.1385,0.1496,0.1541,0.1478,0.1471,0.1559,0.1568,0.1472,0,0,0,0,0,0,0.0756,0.0779,0.0789,0.0781,0.079,0.0822,0.0857,0.0922,0.0929,0.104,0.1089,0.1174,0.1268,0.1329,0.1366,0.1385,0.1353,0.1557,0.1553,0.1554,0.1562,0.1569,0.1474,0,0,0,0,0]},{"header":{"parameterUnit":"m.s-1","parameterCategory":2,"la1":30.2991,"la2":30.254,"lo1":-89.0895,"lo2":-89.0444,"dy":0.0017,"dx":0.0017,"nx":28,"ny":28,"refTime":"2024-05-12T03:00:00:Z","depth":"4","parameterNumber":3,"parameterNumberName":"V-component_of_CURRENTS"},"data":[0,0,0,0,0,0,0,0,0,0,0,0,0,0,0,0,0,0,0,0,0,0,0,0,0,0,0,0,0,0,0,0,0,0,0,0,0,0,0,0,0,0,0,0,0,0,0,0,0,0,0,0,0,0,0,0,0,0,-0.0059,-0.006,0,-0.0087,-0.0088,-0.0088,-0.0101,-0.01,-0.01,-0.01,-0.0147,-0.0149,-0.015,0,0,0,0,0,0,0,0,0,0,0,0,0,-0.0031,-0.0031,-0.0059,-0.006,-0.006,-0.0087,-0.0088,-0.0088,-0.0101,-0.01,-0.01,-0.01,-0.0147,-0.0149,-0.015,0,0,0,0,0,0,0,0,0,0,0,0,0,-0.0049,-0.0031,-0.0059,-0.007,-0.0071,-0.0087,-0.0088,-0.0088,-0.0101,-0.01,-0.01,-0.01,-0.0147,-0.0148,-0.015,-0.0163,0,0,-0.0156,-0.0157,0,0,0,0,0,0,0,0,-0.0048,-0.005,-0.0068,-0.0069,-0.007,-0.009,-0.0095,-0.0114,-0.0101,-0.0089,-0.01,-0.01,-0.013,-0.0133,-0.0139,-0.0165,-0.0167,-0.0156,-0.0157,-0.0158,-0.0159,0,0,0,0,0,0,0,-0.0047,-0.0049,-0.007,-0.0068,-0.007,-0.0078,-0.008,-0.0099,-0.011,-0.009,-0.0091,-0.0094,-0.0131,-0.0137,-0.014,-0.0168,-0.0156,-0.0158,-0.0159,-0.016,-0.0201,-0.02,0,0,0,0,0,0,-0.0043,-0.0048,-0.007,-0.0071,-0.0059,-0.0078,-0.0081,-0.0084,-0.0109,-0.0113,-0.0094,-0.0095,-0.0133,-0.0138,-0.0142,-0.0148,-0.0158,-0.016,-0.0161,-0.0201,-0.0201,-0.02,0,0,0,0,0,0,-0.0042,-0.0045,-0.0068,-0.006,-0.0064,-0.0079,-0.0082,-0.0085,-0.009,-0.0112,-0.0116,-0.0097,-0.0133,-0.0139,-0.0156,-0.015,-0.0161,-0.0163,-0.0201,-0.0201,-0.02,-0.0168,0,0,0,0,0,0,-0.0041,-0.0044,-0.0045,-0.006,-0.0064,-0.0076,-0.0082,-0.0085,-0.0092,-0.0093,-0.0116,-0.012,-0.0134,-0.0153,-0.0158,-0.0153,-0.0164,-0.0201,-0.0201,-0.0201,-0.0169,-0.0167,-0.0164,0,0,0,0,0,-0.004,-0.0042,-0.0044,-0.0047,-0.0065,-0.0076,-0.0079,-0.009,-0.0092,-0.0094,-0.0109,-0.012,-0.0156,-0.0155,-0.0161,-0.0156,-0.0201,-0.0201,-0.0201,-0.017,-0.0167,-0.0165,0,0,0,0,0,0,-0.003,-0.0044,-0.0047,-0.0053,-0.0062,-0.0079,-0.0082,-0.0089,-0.0102,-0.0103,-0.0123,-0.0128,-0.014,-0.0155,-0.0153,-0.0167,-0.0179,-0.018,-0.0153,-0.0151,-0.0149,-0.0133,-0.0166,0,0,0,0,0,-0.0028,-0.0032,-0.0046,-0.0049,-0.0054,-0.0067,-0.0073,-0.008,-0.0094,-0.01,-0.0115,-0.0131,-0.0144,-0.0153,-0.0168,-0.0179,-0.0188,-0.0179,-0.0177,-0.0175,-0.0166,-0.0174,-0.0171,-0.02,-0.02,-0.02,0,0,-0.0025,-0.0033,-0.0035,-0.0047,-0.0056,-0.006,-0.0071,-0.0079,-0.0079,-0.0103,-0.0109,-0.0126,-0.0146,-0.0155,-0.0161,-0.0166,-0.0173,-0.0175,-0.0173,-0.0165,-0.0174,-0.0171,-0.0168,-0.02,-0.02,-0.02,0,0,-0.0022,-0.0028,-0.003,-0.0036,-0.0048,-0.0055,-0.0056,-0.007,-0.0074,-0.0084,-0.0098,-0.0108,-0.0134,-0.0141,-0.0149,-0.0145,-0.0161,-0.0152,-0.0128,-0.0136,-0.0134,-0.0131,-0.0143,-0.0142,-0.0151,-0.015,-0.015,0,-0.0018,-0.0021,-0.0033,-0.0035,-0.0036,-0.005,-0.0049,-0.0055,-0.0072,-0.007,-0.0082,-0.0104,-0.0123,-0.0125,-0.0123,-0.0138,-0.0148,-0.0136,-0.0132,-0.013,-0.0129,-0.0141,-0.0141,-0.0149,-0.0149,-0.0149,-0.0149,0,-0.0017,-0.0017,-0.0018,-0.0023,-0.0025,-0.0027,-0.0035,-0.0036,-0.0041,-0.0047,-0.005,-0.0074,-0.0083,-0.0093,-0.0108,-0.0104,-0.0116,-0.0128,-0.0136,-0.0124,-0.0138,-0.0138,-0.0147,-0.0147,-0.0148,-0.0148,0,0,-0.0016,-0.0017,-0.0017,-0.0009,-0.0016,-0.0016,-0.0012,-0.0009,0.0003,-0.0016,-0.0001,-0.0027,-0.0035,-0.0044,-0.0063,-0.0071,-0.0073,-0.0092,-0.0093,-0.0098,-0.0094,-0.0104,-0.0105,-0.0085,-0.0085,-0.0085,-0.011,0,-0.001,-0.0005,-0.0007,0.0005,0.001,0.0008,0.0018,0.002,0.002,0.003,0.0012,0.0015,-0.0017,-0.0016,-0.003,-0.0059,-0.0071,-0.0066,-0.0109,-0.0111,-0.0117,-0.0105,-0.0084,-0.011,-0.011,-0.011,-0.011,0,-0.001,-0.0003,0.001,0.0031,0.0034,0.0042,0.0066,0.0074,0.0083,0.0085,0.0084,0.007,0.0059,0.0031,-0.0012,-0.0007,-0.0045,-0.0073,-0.0075,-0.0093,-0.012,-0.0125,-0.011,-0.011,-0.011,-0.011,-0.011,0,-0.0002,0.0011,0.0027,0.0031,0.0048,0.0063,0.0077,0.0092,0.0115,0.0127,0.0146,0.0121,0.0122,0.0072,0.0012,0.0002,-0.0036,-0.0059,-0.0106,-0.0108,-0.0106,-0.0108,-0.0088,-0.0088,-0.0088,-0.0088,-0.0088,0,0.0005,0.0017,0.0035,0.0042,0.0077,0.0083,0.0123,0.0135,0.0165,0.0203,0.018,0.0202,0.0134,0.0102,0.0034,-0.0031,-0.0021,-0.0095,-0.0111,-0.0093,-0.0093,-0.0106,-0.0108,-0.0089,-0.0089,-0.0089,-0.0089,0,0.0007,0.0015,0.0037,0.0064,0.008,0.0105,0.0159,0.019,0.0215,0.0266,0.0276,0.0267,0.0227,0.0151,0.0074,0.0007,-0.0062,-0.009,-0.006,-0.0075,-0.0136,-0.0136,-0.0144,-0.0144,-0.0145,-0.0145,-0.0145,0,0.0007,0.0017,0.0056,0.0078,0.0093,0.0136,0.0173,0.0211,0.0251,0.0308,0.0335,0.0319,0.0299,0.0193,0.0095,-0.0033,-0.0059,-0.0102,-0.0126,-0.0125,-0.014,-0.0139,-0.0138,-0.0146,-0.0146,-0.0146,-0.0146,0,0.0011,0.0023,0.0045,0.0092,0.0132,0.0184,0.0239,0.0275,0.0331,0.0355,0.0399,0.0353,0.0308,0.0206,0.0109,0.0012,-0.0078,-0.0107,-0.0107,-0.013,-0.0128,-0.0142,-0.0141,-0.0148,-0.0148,-0.0147,-0.0147,0,0.0014,0.0031,0.0061,0.0104,0.0158,0.0218,0.0249,0.0308,0.0354,0.0419,0.0431,0.0391,0.0367,0.023,0.014,0.0045,0.0008,-0.0039,-0.0043,-0.0043,-0.0016,0.0002,0.0017,0,0,0,0,0,0.0011,0.0031,0.0072,0.0123,0.018,0.0211,0.0288,0.032,0.0379,0.0419,0.0431,0.0394,0.0284,0.0237,0.0141,0.0101,-0.0032,-0.002,-0.0094,-0.0156,-0.0154,-0.0141,0,0,0,0,0,0,0.0008,0.0041,0.0066,0.0133,0.0169,0.0238,0.0287,0.0329,0.0355,0.0402,0.035,0.0347,0.0236,0.0337,0.0132,0.0104,0.0037,-0.0066,-0.0068,-0.0157,-0.0155,-0.0154,-0.014,0,0,0,0,0]}]]